Temperature
19 18 18 18 18 18 18 18 18 18 18 18 18 18 18 18 18 18 18 18 18 18 18 18 18 18 18 18 18 18 18 18 18 18 18 18 18 18 18 17 17 17 17
18 18 18 18 18 18 18 18 18 18 18 18 18 18 17 17 17 17 18 18 18 18 18 18 18 18 18 18 18 19 19 19 18 18 18 18 18 18 18 17 17 17 17
18 18 18 18 17 17 17 17 17 17 17 17 17 17 17 17 17 17 17 18 18 18 18 18 18 18 18 18 18 18 19 19 19 19 18 18 18 18 18 17 17 17 17
18 18 18 17 17 17 17 17 17 17 17 17 17 17 17 17 17 17 17 17 18 18 18 18 18 18 18 18 18 18 18 18 18 18 18 18 18 18 18 18 18 17 17
18 18 18 17 17 17 17 17 17 17 17 17 17 17 17 17 17 17 17 18 18 18 18 18 18 18 18 18 18 18 18 18 18 18 18 18 18 18 18 18 18 18 18
19 18 18 17 17 17 17 17 16 16 16 16 16 16 17 17 17 17 17 17 18 18 18 18 18 18 18 18 18 18 18 18 18 18 18 18 18 18 18 18 18 18 18
19 18 18 18 17 17 17 16 16 16 16 16 16 16 17 17 17 17 17 17 17 17 17 17 17 18 18 18 18 18 18 18 18 18 18 18 18 18 18 18 18 18 18
19 18 18 18 17 17 17 16 16 16 16 16 15 15 16 17 17 17 17 17 17 17 17 17 17 17 18 18 18 18 18 18 17 17 17 17 17 18 18 18 18 18 18
19 18 18 18 18 17 17 17 16 16 16 15 15 15 14 14 15 17 17 17 17 17 17 17 18 18 18 18 18 18 18 17 17 17 17 17 17 17 17 18 18 18 18
18 18 18 18 18 18 17 17 16 16 16 15 15 15 14 14 14 14 16 17 16 17 17 17 17 18 18 18 18 18 18 18 17 17 17 17 17 17 17 17 17 17 17
18 18 18 18 18 18 17 17 17 16 16 16 15 15 15 14 14 14 14 16 16 16 16 17 17 18 18 18 18 18 17 17 17 17 17 17 17 17 17 17 17 17 17
17 17 17 17 17 17 17 17 17 16 16 16 15 15 15 14 14 13 13 14 15 16 16 16 17 17 17 18 17 17 17 17 17 17 17 17 17 17 17 17 17 17 17
16 17 17 17 17 17 17 17 17 16 16 16 15 15 15 15 14 14 13 14 14 15 15 16 16 16 17 17 17 17 17 17 17 17 17 17 16 16 16 16 16 16 16
15 15 16 16 16 16 16 16 16 16 16 16 15 15 15 15 14 14 14 13 13 14 14 15 15 16 16 16 16 16 16 16 16 16 16 16 16 16 16 16 16 16 16
13 13 14 14 15 15 15 15 16 16 16 15 15 15 15 15 14 14 14 13 13 13 13 14 14 15 15 15 16 16 16 16 15 15 15 15 15 15 15 15 15 15 15
12 12 13 13 13 14 14 14 15 15 15 15 15 15 15 15 14 14 14 14 13 13 13 13 14 14 14 14 14 15 15 15 15 15 15 15 14 15 15 14 14 14 15
11 11 11 12 12 13 13 13 14 14 14 15 15 14 15 15 14 14 14 14 14 13 13 13 13 13 13 13 13 14 14 14 14 14 14 14 14 14 14 14 14 14 14
10 10 10 11 11 12 12 12 13 13 14 14 14 14 14 14 14 14 14 14 14 14 13 13 13 13 13 13 13 13 13 13 13 13 13 13 13 13 13 13 13 13 13
10 10 10 10 10 11 11 11 12 12 13 13 14 14 14 14 14 14 14 14 14 14 13 13 13 13 13 12 12 12 12 12 12 12 12 12 12 12 12 12 12 12 13
10 10 9 9 10 10 10 10 11 11 12 12 13 13 13 14 14 14 14 14 14 14 13 13 13 13 12 12 12 11 11 11 11 11 11 12 12 12 12 12 12 12 12
9 9 9 9 9 9 9 10 10 11 11 12 12 13 13 13 13 14 14 14 14 13 13 13 13 12 12 12 11 11 11 11 10 11 11 11 11 11 11 11 11 11 11
9 9 9 9 9 9 9 9 9 10 10 11 11 12 13 13 13 14 14 14 14 13 13 13 12 12 12 12 11 11 11 11 10 10 11 10 10 10 10 10 10 10 10
8 8 9 9 9 9 9 9 9 9 9 10 11 11 12 13 13 13 14 14 13 13 13 13 13 12 12 12 11 11 11 11 11 10 10 10 10 10 10 10 9 9 9
8 8 8 8 8 9 9 9 9 9 9 9 10 11 11 12 13 13 13 13 13 13 12 12 13 13 13 12 12 11 11 11 10 10 10 10 9 9 9 9 8 8 8
7 7 8 8 8 8 8 9 9 9 9 9 10 10 11 12 12 12 12 12 12 12 12 12 12 12 12 11 11 11 10 10 9 9 9 10 9 9 8 8 8 8 8
7 7 7 7 8 8 8 8 8 8 9 9 9 10 10 11 12 12 12 12 12 12 11 11 11 11 11 11 11 11 11 10 10 9 9 10 9 9 8 8 8 8 7
Wind_Speed
8 7 5 5 5 6 4 4 5 7 7 7 9 8 8 9 11 12 13 17 19 21 21 22 25 25 24 24 24 23 23 24 24 25 25 25 24 23 23 23 22 22 21
6 6 5 4 3 4 5 4 5 6 5 5 6 7 6 7 9 11 13 15 19 21 22 22 24 25 25 24 24 24 24 25 25 25 26 26 25 25 24 24 24 24 23
7 5 4 4 4 4 4 3 4 3 4 4 6 6 6 6 7 8 11 12 14 18 22 24 26 26 26 25 25 25 25 25 25 25 26 26 26 26 26 25 25 25 25
8 4 4 4 3 3 2 3 2 2 3 3 4 4 5 5 7 7 9 11 12 13 17 24 27 27 27 27 27 26 26 26 25 26 26 26 26 26 26 26 26 26 26
8 5 4 3 3 2 1 1 1 2 2 3 4 5 5 5 7 8 8 9 11 13 15 19 26 28 29 29 28 27 27 27 26 26 27 27 26 26 26 26 26 26 27
8 5 4 4 3 3 1 1 1 1 2 2 3 4 5 6 6 7 8 7 8 12 15 16 17 21 28 29 28 28 29 28 27 27 27 27 26 26 25 26 26 26 27
7 6 5 4 4 3 2 2 1 1 1 1 1 3 4 5 5 5 5 5 6 8 10 11 13 14 15 22 26 28 29 29 28 27 28 27 26 26 25 25 26 26 26
7 7 7 5 5 3 2 1 2 1 1 0 2 0 4 5 4 2 2 2 3 4 5 7 9 11 13 13 16 24 27 29 28 27 27 26 25 25 25 25 25 25 26
7 7 8 7 6 4 3 3 3 4 2 2 2 3 1 2 4 4 2 2 2 3 4 4 4 7 10 11 12 14 18 21 22 23 24 24 23 23 23 24 24 25 26
7 7 9 8 7 5 5 4 4 4 4 2 2 2 3 4 2 4 4 2 3 3 4 4 4 3 5 7 10 12 13 15 17 19 19 19 20 20 20 21 23 24 25
5 7 8 8 8 6 6 6 5 4 4 4 3 3 2 2 4 4 5 4 4 3 3 4 3 2 2 4 6 9 12 12 10 10 11 13 14 15 16 19 22 23 24
3 5 7 8 8 7 7 7 6 6 5 5 4 4 4 3 3 4 4 4 5 4 4 3 3 2 1 3 4 8 11 10 8 6 6 6 6 7 8 11 14 18 20
4 5 4 6 7 8 8 7 7 6 6 6 6 5 5 5 4 4 4 4 4 3 2 2 2 1 2 4 5 8 9 10 10 9 8 7 5 3 2 2 5 7 10
5 6 5 4 6 8 9 8 6 7 6 7 7 6 5 5 5 5 4 3 3 3 2 2 1 1 2 4 8 9 9 12 13 13 12 12 11 10 9 8 7 5 3
6 7 7 6 5 6 8 8 7 8 7 7 7 7 6 5 5 5 5 5 4 3 2 2 1 2 3 5 8 9 10 14 15 16 15 14 14 14 14 13 13 13 13
6 7 7 7 7 6 6 7 7 7 8 8 6 7 7 5 5 5 5 5 6 5 4 2 1 3 5 6 10 10 13 16 16 17 17 16 16 15 15 15 15 15 14
6 7 7 7 7 8 7 6 8 8 9 9 8 8 8 6 5 5 4 4 5 6 6 3 2 4 6 10 9 10 12 11 13 16 17 16 16 16 16 16 16 15 15
7 7 7 7 8 8 7 7 8 8 9 9 9 9 9 7 7 5 4 5 5 6 5 5 3 4 6 11 11 10 8 10 11 15 17 17 16 17 17 17 17 17 17
9 8 7 7 8 8 8 8 8 8 8 9 9 9 9 8 8 6 5 5 5 5 5 6 5 4 6 10 11 10 10 8 10 14 16 16 17 17 17 18 18 18 18
10 10 9 9 9 8 8 8 8 8 8 8 8 9 9 9 9 8 6 6 5 5 6 7 8 8 8 9 10 10 9 7 8 9 11 14 17 18 17 18 18 19 19
12 11 10 10 9 8 8 8 7 8 7 7 7 7 9 11 11 9 7 6 6 5 7 8 10 8 9 11 10 7 11 10 7 5 7 6 7 8 11 14 16 17 18
11 11 11 11 11 10 11 12 9 7 8 8 7 6 7 10 11 11 11 10 9 9 10 9 8 11 11 11 10 12 12 11 5 3 5 5 4 6 5 9 12 15 16
11 11 12 11 12 12 15 15 14 9 8 8 8 7 7 8 9 7 7 6 7 11 12 10 12 12 12 13 13 12 10 7 6 7 6 5 3 4 4 8 11 13 14
9 10 11 11 11 12 15 15 15 9 8 9 8 8 8 8 9 9 7 5 4 5 9 9 10 11 13 13 12 11 11 9 8 6 4 4 3 3 3 4 7 10 12
8 8 8 10 10 11 14 15 13 6 7 8 8 8 8 10 13 13 9 8 6 5 8 12 14 15 17 17 14 12 11 12 10 5 2 4 4 3 2 1 1 5 7
9 9 9 9 10 10 13 15 13 6 7 7 7 7 10 11 15 15 11 11 11 9 10 13 14 15 14 14 14 11 12 13 10 5 4 4 5 4 3 1 1 2 2
Wind_Direction
218 220 222 221 220 217 215 217 223 225 224 230 236 235 237 239 239 237 239 244 248 249 245 232 223 221 221 220 218 218 220 220 218 216 214 215 215 215 215 215 214 215 214
208 214 221 222 217 206 202 206 215 222 223 225 233 233 229 231 231 230 232 241 245 242 239 232 226 226 225 225 223 220 219 221 221 219 217 217 217 217 218 218 217 217 217
195 197 206 219 223 216 208 211 223 227 238 236 238 239 235 232 234 230 229 233 239 239 236 233 230 229 229 229 228 225 222 221 221 221 220 219 219 219 219 220 220 220 219
182 175 191 216 220 215 208 219 228 237 246 245 252 254 248 243 245 238 236 234 233 239 238 236 235 234 233 233 233 230 226 223 222 222 222 221 221 221 221 221 221 221 221
178 170 183 203 185 167 199 225 193 198 233 261 266 261 256 251 251 252 243 237 235 232 233 238 239 238 238 239 239 237 232 227 223 223 224 223 223 223 223 223 223 222 222
176 163 165 172 152 132 132 159 191 200 209 239 276 285 270 259 250 246 248 247 242 239 236 236 239 242 242 241 241 240 237 232 229 227 226 225 224 224 223 224 225 224 224
172 159 155 152 141 143 173 191 187 231 266 225 13 317 298 274 258 252 251 254 258 255 249 241 237 238 242 241 239 240 239 236 235 233 230 227 225 224 224 224 225 226 225
171 165 160 162 157 155 173 185 164 172 252 165 145 353 333 333 332 302 289 267 288 290 274 262 241 233 234 235 236 236 239 239 237 237 236 232 228 225 224 224 225 226 226
177 167 172 167 170 171 190 209 195 173 202 250 180 162 178 270 309 312 302 311 328 320 299 289 257 239 231 229 231 236 242 242 239 240 242 238 233 228 226 226 226 226 226
190 179 179 176 179 181 192 210 191 183 178 216 250 206 194 191 231 304 311 302 313 314 310 311 296 260 228 213 212 212 228 237 238 242 244 246 244 236 231 231 231 229 228
222 205 191 186 186 189 196 203 201 203 192 196 207 215 225 217 208 224 286 309 320 291 292 287 280 258 208 186 188 199 209 220 223 230 235 240 241 236 233 235 237 236 232
282 252 218 201 196 194 199 203 206 210 213 214 215 208 205 211 209 208 251 291 304 301 304 289 270 233 172 144 165 175 186 185 182 180 194 206 215 221 231 238 241 241 239
313 297 262 223 207 201 201 199 202 216 217 219 222 221 218 221 214 210 234 264 279 295 303 317 303 160 123 116 129 141 145 146 142 142 137 129 125 125 151 218 234 238 241
307 313 309 268 231 211 205 201 206 216 215 220 227 223 223 231 221 210 211 231 277 288 283 268 341 112 118 114 117 115 118 123 122 119 114 109 104 99 92 86 83 85 88
318 328 326 317 288 243 221 207 212 217 216 221 227 227 226 231 225 221 212 203 213 249 270 239 178 121 115 111 115 112 113 113 111 109 107 104 101 97 92 88 84 82 81
310 317 320 317 309 287 250 228 223 222 220 226 225 227 230 230 231 226 217 210 207 213 228 221 180 139 134 121 115 113 112 109 106 106 104 102 100 97 92 89 86 83 83
296 303 305 306 304 301 291 261 240 228 225 229 228 225 229 222 223 228 221 216 214 209 223 209 160 141 135 129 118 112 108 103 104 104 103 101 98 95 91 88 85 82 82
274 279 286 294 297 298 299 291 275 255 234 229 228 223 227 223 222 222 220 225 224 212 203 190 163 153 142 138 129 119 109 105 103 102 101 100 98 95 92 90 87 84 82
264 269 272 276 282 287 288 287 282 273 254 239 228 220 220 214 222 222 222 230 232 220 195 173 162 149 139 137 128 115 109 104 101 101 97 96 96 95 94 93 92 89 87
253 257 257 259 264 270 276 280 281 278 268 255 238 224 214 208 214 217 223 228 226 211 185 170 161 153 145 139 133 130 121 111 106 101 97 98 97 94 94 95 95 94 92
250 248 248 251 254 259 264 265 267 281 282 270 252 232 217 210 210 209 215 219 210 200 181 169 161 154 151 151 144 140 131 118 94 104 106 94 90 84 83 92 97 99 97
249 247 244 244 246 253 259 264 264 270 274 266 254 241 224 210 209 212 220 218 208 196 183 170 165 162 157 150 141 144 139 134 120 141 112 97 89 90 81 93 107 108 105
245 244 244 240 241 244 249 256 261 260 262 262 247 228 223 209 194 197 204 208 208 200 183 168 164 161 156 153 148 147 146 134 127 153 126 103 83 82 75 99 111 112 111
236 239 239 236 237 244 245 248 255 254 252 254 244 228 216 200 194 184 173 166 162 164 166 160 156 152 150 149 148 145 138 116 109 132 123 111 105 90 71 75 105 113 115
236 235 233 231 231 242 246 246 248 242 245 251 247 235 215 200 193 178 165 158 144 132 128 132 133 134 137 138 139 138 137 138 142 150 135 113 127 101 80 64 94 121 117
235 237 237 230 226 234 243 244 240 223 236 246 244 234 219 204 186 177 169 164 156 147 135 128 125 127 135 142 148 153 153 151 148 149 172 125 142 131 120 195 198 169 134
Height
1517 1518 1518 1518 1518 1519 1519 1519 1519 1519 1519 1520 1521 1522 1523 1524 1525 1526 1527 1528 1528 1529 1530 1531 1532 1534 1536 1537 1538 1539 1541 1542 1544 1546 1548 1551 1552 1554 1556 1558 1560 1562 1564
1514 1515 1515 1515 1515 1515 1515 1515 1515 1515 1515 1516 1516 1517 1518 1519 1520 1521 1522 1523 1524 1524 1525 1527 1529 1530 1532 1533 1535 1536 1538 1539 1540 1542 1544 1547 1549 1551 1553 1555 1557 1559 1561
1511 1512 1512 1512 1512 1512 1511 1511 1511 1511 1511 1511 1512 1512 1513 1514 1515 1516 1517 1518 1519 1520 1521 1522 1524 1526 1527 1529 1530 1532 1534 1536 1537 1538 1540 1542 1545 1547 1549 1551 1553 1555 1557
1509 1509 1509 1509 1509 1508 1508 1508 1507 1507 1507 1507 1507 1507 1508 1509 1509 1510 1511 1512 1513 1514 1515 1517 1518 1520 1522 1523 1525 1527 1529 1531 1533 1534 1536 1538 1540 1543 1545 1547 1549 1551 1553
1507 1506 1506 1506 1506 1506 1505 1504 1504 1503 1503 1503 1502 1502 1503 1503 1504 1504 1505 1506 1507 1509 1510 1511 1513 1514 1516 1518 1520 1522 1524 1525 1527 1529 1532 1534 1536 1538 1541 1543 1545 1547 1549
1504 1504 1504 1503 1503 1503 1502 1501 1501 1500 1499 1498 1498 1498 1498 1498 1498 1499 1500 1501 1502 1503 1505 1506 1507 1508 1510 1512 1514 1515 1517 1520 1522 1524 1526 1529 1531 1534 1536 1538 1541 1543 1545
1502 1502 1501 1501 1500 1499 1499 1498 1497 1497 1496 1495 1494 1493 1493 1493 1493 1494 1495 1496 1497 1498 1498 1500 1501 1502 1504 1506 1507 1509 1511 1514 1516 1518 1521 1523 1526 1528 1531 1533 1536 1538 1540
1500 1500 1499 1498 1497 1496 1496 1495 1493 1493 1493 1491 1490 1489 1488 1489 1489 1490 1491 1492 1493 1493 1493 1494 1494 1496 1497 1499 1501 1503 1505 1508 1510 1512 1515 1517 1520 1523 1525 1528 1530 1533 1535
1497 1497 1497 1495 1494 1494 1493 1492 1491 1490 1489 1489 1487 1486 1486 1486 1485 1486 1487 1488 1489 1489 1488 1488 1488 1489 1491 1493 1495 1498 1500 1502 1504 1506 1509 1512 1514 1517 1519 1522 1524 1527 1529
1494 1494 1493 1492 1492 1491 1490 1489 1488 1487 1486 1485 1485 1484 1484 1484 1484 1482 1482 1483 1484 1484 1484 1483 1484 1485 1486 1488 1490 1492 1494 1497 1499 1502 1504 1506 1509 1511 1513 1515 1518 1520 1522
1490 1491 1490 1489 1489 1488 1487 1487 1486 1485 1483 1482 1481 1480 1480 1480 1481 1480 1477 1477 1478 1479 1479 1479 1479 1480 1481 1483 1485 1488 1490 1492 1495 1497 1499 1501 1503 1505 1507 1509 1511 1513 1515
1485 1485 1485 1485 1484 1484 1484 1483 1483 1482 1480 1479 1478 1477 1477 1476 1477 1477 1475 1474 1473 1474 1474 1474 1475 1476 1477 1479 1480 1483 1486 1488 1491 1492 1494 1496 1498 1500 1501 1503 1505 1506 1508
1479 1479 1479 1479 1479 1479 1479 1479 1479 1478 1477 1475 1474 1473 1473 1472 1473 1473 1472 1471 1470 1470 1470 1470 1471 1472 1473 1475 1477 1480 1482 1485 1486 1488 1490 1492 1494 1495 1496 1497 1499 1500 1501
1472 1472 1471 1471 1472 1473 1473 1474 1474 1474 1473 1471 1471 1470 1469 1468 1468 1468 1468 1468 1467 1467 1467 1467 1468 1469 1471 1473 1475 1477 1479 1481 1483 1485 1486 1488 1489 1490 1491 1492 1493 1494 1496
1467 1466 1465 1464 1465 1466 1467 1468 1468 1469 1468 1467 1466 1465 1464 1464 1464 1464 1464 1464 1465 1464 1464 1464 1465 1466 1468 1470 1472 1474 1476 1478 1480 1481 1483 1484 1485 1487 1487 1488 1489 1490 1491
1462 1460 1459 1458 1458 1459 1460 1461 1462 1462 1462 1462 1461 1461 1460 1459 1459 1459 1459 1460 1460 1461 1461 1461 1463 1464 1466 1467 1469 1472 1473 1475 1477 1479 1481 1482 1483 1484 1485 1486 1487 1488 1489
1456 1454 1453 1452 1452 1452 1452 1453 1454 1455 1456 1456 1456 1455 1455 1454 1454 1454 1454 1454 1455 1455 1456 1457 1459 1461 1463 1465 1467 1469 1471 1473 1476 1478 1479 1481 1482 1483 1484 1485 1486 1487 1488
1451 1449 1447 1446 1445 1445 1445 1445 1446 1448 1449 1449 1449 1449 1449 1449 1449 1449 1449 1449 1449 1450 1451 1452 1455 1457 1460 1462 1465 1467 1470 1472 1475 1477 1479 1481 1482 1483 1484 1485 1487 1487 1488
1445 1443 1442 1440 1439 1438 1438 1438 1439 1439 1440 1442 1443 1443 1443 1443 1443 1443 1443 1443 1444 1444 1445 1447 1450 1454 1457 1460 1463 1466 1469 1471 1474 1476 1479 1481 1482 1484 1485 1486 1487 1488 1489
1438 1437 1436 1435 1434 1432 1432 1431 1432 1432 1432 1434 1435 1436 1437 1437 1438 1438 1437 1437 1438 1438 1440 1442 1446 1450 1453 1457 1460 1464 1467 1471 1473 1476 1479 1481 1483 1485 1486 1488 1489 1490 1491
1430 1429 1429 1428 1428 1427 1426 1425 1425 1425 1425 1426 1427 1428 1430 1431 1432 1432 1432 1432 1432 1433 1435 1437 1441 1445 1449 1453 1457 1461 1465 1469 1473 1477 1479 1482 1484 1486 1488 1490 1491 1492 1492
1421 1421 1421 1421 1420 1420 1420 1419 1418 1418 1418 1419 1419 1421 1423 1424 1426 1426 1426 1426 1427 1428 1429 1432 1436 1440 1444 1449 1454 1459 1462 1466 1471 1477 1480 1483 1486 1488 1490 1491 1492 1493 1494
1413 1412 1412 1413 1412 1413 1413 1412 1412 1412 1411 1412 1412 1414 1415 1418 1420 1421 1421 1421 1422 1423 1426 1428 1431 1436 1440 1445 1450 1456 1461 1466 1469 1475 1480 1483 1487 1489 1491 1493 1494 1494 1495
1403 1403 1403 1404 1404 1404 1405 1405 1405 1405 1405 1405 1406 1407 1409 1411 1414 1415 1416 1417 1418 1419 1422 1425 1429 1433 1439 1444 1450 1455 1461 1467 1472 1478 1482 1483 1487 1490 1492 1494 1495 1495 1496
1393 1394 1394 1395 1395 1396 1397 1398 1398 1398 1398 1399 1399 1400 1402 1405 1408 1410 1412 1413 1415 1417 1420 1424 1429 1433 1439 1444 1450 1455 1461 1466 1471 1477 1482 1484 1487 1490 1493 1495 1496 1497 1498
1383 1384 1385 1386 1387 1388 1389 1390 1391 1391 1392 1392 1393 1394 1396 1399 1402 1405 1408 1410 1412 1415 1418 1423 1428 1433 1439 1444 1450 1455 1459 1464 1469 1476 1481 1484 1487 1490 1493 1496 1497 1498 1499